www.pogodaiklimat.ru

Погода и климат >> Архив погоды >> Индия >> Западная Бенгалия >> Даймонд Харбор


ПОГОДА в Даймонд Харбор

  • Прогноз погоды в Даймонд Харбор
  • Монитор погоды в Даймонд Харбор

АРХИВ ПОГОДЫ в Даймонд Харбор

Время (UTC), дата Ветер
(напр.,м/с)
 
Видим.   Явления Облачность Т
(С)
Тd
(С)
f
(%)
Тe
(С)
Тes
(С)
Комфортность P
(гПа)
Po
(гПа)
Тmin
(С)
Tmax
(С)
R
(мм)
R24
(мм)
S
(см)
06 15.04 Ю 0 4000 м ясно +32.8 +29.5 83 +58 +87 опасность
перегрева
1008.6 1007.8
09 15.04 Ю 0 4000 м ясно +34.4 +31.2 84 +66 +83 опасность
перегрева
1006.1 1005.3
12 15.04 Ю 0 4000 м 4/3 1000 м
[Sc diur, vesp Ac trans]
+30.8 +29.5 93 +55 +55 опасность
перегрева
1005.1 1004.3 +35.0
03 16.04 Ю 0 4000 м 3/3 1000 м
[Sc diur, vesp]
+30.2 +28.6 91 +51 +62 опасность
перегрева
1008.8 1008.0 +27.1
06 16.04 Ю 0 4000 м 5/3 1000 м
[Sc diur, vesp Ac trans]
+33.0 +30.0 84 +60 +76 опасность
перегрева
1008.6 1007.8
09 16.04 штиль 0 4000 м 5/3 1000 м
[Sc diur, vesp Ac trans]
+36.6 +30.0 69 +63 +73 опасность
перегрева
1005.9 1005.1
12 16.04 штиль 0 4000 м 4/3 1000 м
[Sc diur, vesp Ac trans]
+34.4 +30.9 82 +65 +65 опасность
перегрева
1005.7 1004.9 +37.4
03 17.04 штиль 0 4000 м 1/1 1000 м
[Sc diur, vesp]
+29.0 +25.9 83 +43 +56 опасность
перегрева
1011.2 1010.4 +25.6
06 17.04 штиль 0 4000 м ясно +34.6 +28.4 70 +56 +85 опасность
перегрева
1011.3 1010.5
09 17.04 штиль 0 4000 м 8/6 1000 м
[Sc diur, vesp Ac trans]
+35.2 +29.1 71 +59 +64 опасность
перегрева
1009.6 1008.8
12 17.04 штиль 0 4000 м 5/3 1000 м
[Sc Ac trans]
+32.4 +28.0 78 +53 +53 опасность
перегрева
1008.9 1008.1 +36.6
03 18.04 штиль 0 4000 м ясно +28.0 +22.4 72 +37 +52 опасность
солнечного
удара
1012.1 1011.3 +24.6
06 18.04 штиль 0 4000 м ясно +33.4 +24.6 60 +46 +75 опасность
перегрева
1012.2 1011.4
09 18.04 штиль 0 4000 м ясно +35.6 +24.6 53 +48 +65 опасность
перегрева
1008.9 1008.1
12 18.04 штиль 0 4000 м ясно +33.6 +24.9 60 +47 +47 опасность
перегрева
1007.8 1007.0 +36.2
03 19.04 штиль 0 4000 м 3/3 1000 м
[Sc]
+28.4 +22.2 69 +37 +47 очень
душно
1010.0 1009.2 +25.8
06 19.04 штиль 0 4000 м 9/6 600 м
[Sc diur, vesp Ac trans]
+30.2 +24.8 73 +43 +50 опасность
перегрева
1010.6 1009.8
09 19.04 В 0 4000 м 9/6 600 м
[Sc diur, vesp Ac trans]
+32.6 +23.4 58 +43 +47 опасность
перегрева
1008.3 1007.5
12 19.04 штиль 0 4000 м 5/3 1000 м
[Sc diur, vesp Ac trans]
+31.4 +24.3 66 +44 +44 опасность
перегрева
1006.1 1005.3 +33.8
03 20.04 штиль 0 4000 м 9/5 1000 м
[Sc diur, vesp Ac trans]
+26.0 +21.8 78 +33 +37 очень
душно
1009.1 1008.3 +22.5
06 20.04 штиль 0 4000 м ясно +33.4 +24.0 58 +45 +74 опасность
перегрева
1008.1 1007.3
09 20.04 штиль 0 4000 м ясно +35.8 +23.2 48 +46 +62 опасность
перегрева
1005.3 1004.5
12 20.04 штиль 0 4000 м ясно +33.2 +25.0 62 +47 +47 опасность
перегрева
1004.1 1003.3 +36.3
03 21.04 Ю 0 4000 м 4/3 1000 м
[Sc diur, vesp Ac trans]
+30.2 +28.0 88 +50 +59 опасность
перегрева
1007.4 1006.6 +26.8
06 21.04 ЮВ 0 4000 м 4/3 1000 м
[Sc diur, vesp Ac trans]
+33.8 +30.5 83 +63 +81 опасность
перегрева
1007.5 1006.7
09 21.04 Ю 0 4000 м 5/3 1000 м
[Sc diur, vesp Ac trans]
+34.2 +30.5 81 +63 +72 опасность
перегрева
1004.6 1003.8
12 21.04 Ю 0 4000 м 9/5 1000 м
[Sc Ac trans]
+31.0 +28.0 84 +51 +51 опасность
перегрева
1003.8 1003.0 +35.6
03 22.04 штиль 0 4000 м 4/3 1000 м
[Sc diur, vesp Ac trans]
+25.0 +23.2 90 +33 +43 очень
душно
1008.5 1007.7 +20.7 13

 

Местоположение метеостанции Даймонд Харбор (Западная Бенгалия, Индия): широта 22.18 долгота 88.20 высота над уровнем моря 7 м.

В архиве по умолчанию представлена погода в Даймонд Харбор за последнюю неделю. Архивные данные за месяц целиком и за предыдущие месяцы, начиная с января 2011 года, Вы можете получить, выбрав интересующий диапазон дат из раскрывающегося списка и нажав кнопку "Ввод!".


*Определитесь, кто Вы:
робот инопланетянин человек

Внимание! Время в таблицах - всемирное. Для получения местного времени необходимо прибавить поправку, которая равна 5.5 ч.

Смотрите также архив погоды в соседних городах и на ближайших метеорологических станциях:

Погода в Халдии (Западная Бенгалия, Индия) (23 км)
Погода в Колкате (Западная Бенгалия, Индия) (41 км)
Погода в Улуберии (Западная Бенгалия, Индия) (44 км)
Погода в Каннинге (Западная Бенгалия, Индия) (49 км)
Погода в Колката аэропорту (Западная Бенгалия, Индия) (58 км)
Погода в Контае (Западная Бенгалия, Индия) (64 км)
Погода в Бейсирхэте (Западная Бенгалия, Индия) (86 км)
Погода в Багати (Западная Бенгалия, Индия) (91 км)
Погода в Миднапуре (Западная Бенгалия, Индия) (94 км)
Погода в Диге (Западная Бенгалия, Индия) (95 км)

Пояснения к столбцам:

Ветер - указаны скорость ветра в м/с - средняя за 10 мин, порывы в срок и между сроками (в фигурных скобках) и направление, откуда дует ветер: С - северный, СВ - северо-восточный, В - восточный, ЮВ - юго-восточный, Ю - южный, ЮЗ - юго-западный, З - западный, СЗ - северо-западный.
Видимость - горизонтальная дальность видимости в метрах или километрах. При видимости от 1 до 10 км при отсутствии осадков обычно наблюдается дымка, при ухудшении видимости до 1 км и менее - туман. В сухую погоду видимость может ухудшаться дымом, пылью или мглою.
Явления - указаны атмосферные явления, наблюдавшиеся в срок или в последний час перед сроком; фигурными скобками обозначены явления, наблюдавшиеся между сроками (за 1-3 часа до срока); квадратными скобками обозначены град или гололедные отложения с указанием их диаметра в мм.
Облачность - указаны через наклонную черту общая и нижняя облачность в баллах и высота нижней границы облаков в метрах; квадратными скобками обозначены формы облаков: Ci - перистые, Cs - перисто-слоистые, Cc - перисто-кучевые, Ac - высококучевые, As - высокослоистые, Sc - слоисто-кучевые, Ns - слоисто-дождевые, Cu - кучевые, Cb - кучево-дождевые. Подробнее классификацию облаков см. в Атласе облаков (PDF).
T - Температура воздуха - температура, измеренная на высоте 2 м над землей.
Td - Температура точки росы - температура, при понижении до которой содержащийся в воздухе водяной пар достигнет насыщения.
f - Относительная влажность воздуха - влажноcть воздуха, измеренная на высоте 2 м над землей.
Te - Эффективная температура - температура, которую ощущает одетый по сезону человек в тени. Характеристика душности погоды. При расчете учитывается влияние влажности воздуха и скорости ветра на теплоощущения человека.
Tes - Эффективная температура на солнце - температура, которую ощущает человек, с поправкой на солнечный нагрев. Характеристика знойности погоды. Зависит от высоты солнца над горизонтом, облачности и скорости ветра. Ночью, в пасмурную погоду, а также при ветре 12 м/с и более поправка равна нулю.
P - Атмосферное давление - приведенное к уровню моря атмосферное давление.
Po - Атмосферное давление - измеренное на уровне метеостанции атмосферное давление.
Tmin - Минимальная температура - минимум температуры воздуха на высоте 2 м над землей.
Tmax - Максимальная температура - максимум температуры воздуха на высоте 2 м над землей.
R - Количество осадков - Количество выпавших осадков за период времени, мм. При наведении курсора мыши на число - период времени, за который выпало указанное количество осадков.
R24 - Количество осадков - Количество выпавших осадков за 24 часа, мм.
S - Снежный покров - Высота снежного покрова, см. При наведении курсора мыши на число - состояние снежного покрова и степень покрытия местности в баллах.